www.pogodaiklimat.ru
ПОГОДА в Перкаси
Время
и дата
01:35 13.04
01:55 13.04
02:15 13.04
02:35 13.04
02:55 13.04
03:15 13.04
03:35 13.04
03:55 13.04
04:15 13.04
04:35 13.04
04:55 13.04
05:15 13.04
05:35 13.04
05:55 13.04
06:15 13.04
06:35 13.04
06:55 13.04
07:15 13.04
07:35 13.04
07:55 13.04
08:15 13.04
08:35 13.04
08:55 13.04
09:15 13.04
09:35 13.04
09:55 13.04
10:15 13.04
10:35 13.04
10:55 13.04
11:15 13.04
11:35 13.04
11:55 13.04
12:15 13.04
12:35 13.04
12:55 13.04
13:15 13.04
13:35 13.04
13:55 13.04
14:15 13.04
14:35 13.04
14:55 13.04
15:15 13.04
15:35 13.04
15:55 13.04
16:15 13.04
16:35 13.04
16:55 13.04
17:15 13.04
Ветер
(напр.,м/с)
Видим. Явления Облачность Т
(С)
Тd
(С)
f
(%)
Тe
(С)
Тes
(С)
Комфортность P
(гПа)
Po
(гПа)
Тmin
(С)
Tmax
(С)
R
(мм)
R24
(мм)
S
(см)
З 3
{6}
8 км сильный дождь 8/8 120 m
[Ns]
+9.0 +9.0 100 +6 +6 981.7
З 5
{9}
16 км 10/5 540 m
[Ac]
+9.0 +7.0 87 +6 +6 982.0
З 5
{10}
16 км 10/8 870 m
[Ac]
+9.0 +6.0 81 +6 +6 982.0
З 7
{13}
16 км 10/8 1020 m
[Ac]
+8.0 +4.0 76 +4 +4 982.4
З 7
{11}
16 км 10/2 960 m
[Ac]
+8.0 +3.0 71 +4 +4 982.7
З 7
{12}
16 км 8/8 930 м +8.0 +3.0 71 +4 +4 982.7
З 5
{9}
16 км слабый дождь 10/10 870 m
[Ns]
+7.0 +4.0 81 +3 +3 983.4
З 5
{11}
16 км слабый дождь 8/8 840 m
[Ns]
+7.0 +5.0 87 +3 +3 983.0
З 9
{12}
10 км слабый дождь 10/10 600 m
[Ns]
+7.0 +5.0 87 +2 +2 983.0
З 6
{16}
13 км слабый дождь 8/8 630 m
[Ns]
+6.0 +6.0 100 +1 +1 983.4
нст 3
{7}
16 км 10/8 840 m
[Ac]
+7.0 +6.0 93 +4 +4 983.4
З 4
{9}
16 км 10/8 900 m
[Ac]
+7.0 +6.0 93 +3 +3 983.7
З 7
{14}
16 км слабый дождь 10/10 870 m
[Ns]
+7.0 +5.0 87 +2 +2 984.0
З 6
{9}
14 км 10/10 780 м +7.0 +5.0 87 +3 +3 984.7
З 7
{12}
16 км 10/10 780 м +7.0 +4.0 81 +2 +2 985.0
З 6
{10}
16 км 8/8 780 м +7.0 +4.0 81 +3 +3 985.0
З 8
{12}
16 км 2/2 810 м +7.0 +3.0 76 +2 +2 985.4
З 5
{9}
16 км 5/5 810 м +7.0 +4.0 81 +3 +4 985.4
З 6
{10}
16 км слабые неопределенные осадки 2/2 870 m
[Cb]
+7.0 +3.0 76 +3 +3 985.7
З 5
{11}
16 км 5/5 1020 м +8.0 +3.0 71 +4 +5 985.7
З 7
{12}
16 км 8/8 1110 м +8.0 +2.0 66 +4 +4 985.7
З 6
{10}
16 км 10/10 1200 м +9.0 +2.0 61 +6 +6 986.0
З 6
{12}
16 км 10/10 1200 м +9.0 +1.0 57 +6 +6 986.4
З 7
{11}
16 км 10/10 1290 м +9.0 +1.0 57 +5 +5 986.4
З 7
{9}
16 км 10/10 1320 м +9.0 +1.0 57 +5 +5 986.7
З 5
{8}
16 км 10/10 1380 м +10.0 +1.0 54 +7 +7 986.7
З 6
{14}
16 км 10/10 1410 м +10.0 +1.0 54 +7 +7 986.7
З 10
{15}
16 км 10/10 1410 м +10.0 +1.0 54 +6 +6 987.0
З 8
{12}
16 км 10/10 1410 м +10.0 +1.0 54 +6 +6 987.0
З 10
{15}
16 км 10/10 1320 м +10.0 +1.0 54 +6 +6 987.4
З 10
{14}
16 км 10/10 1350 м +10.0 +1.0 54 +6 +6 987.4
З 10
{15}
16 км 10/10 1350 м +11.0 +1.0 50 +7 +7 987.7
З 11
{16}
16 км 8/8 1350 m
[Ac]
+10.0 0.0 50 +6 +6 987.7
З 10
{14}
16 км 8/8 1350 m
[Ac]
+11.0 +1.0 50 +7 +8 988.0
СЗ 10
{15}
16 км 8/8 1350 м +11.0 0.0 47 +7 +8 988.0
З 7
{14}
16 км 8/8 1650 м +12.0 +1.0 47 +9 +10 988.0
З 7
{15}
16 км 8/8 1500 м +12.0 +1.0 47 +9 +10 988.0
З 10
{15}
16 км 8/8 1500 м +13.0 +1.0 44 +10 +10 987.7
З 8
{14}
16 км 5/5 1500 м +14.0 +1.0 41 +12 +13 987.7
З 9
{13}
16 км 5/5 1650 м +14.0 +1.0 41 +12 +12 988.0
СЗ 9
{16}
16 км 5/5 1650 м +13.0 0.0 41 +10 +11 988.0
СЗ 10
{16}
16 км 5/5 1650 м +13.0 0.0 41 +10 +10 988.4
З 8
{16}
16 км 8/8 1650 м +13.0 0.0 41 +11 +11 988.7
СЗ 5
{10}
16 км 8/8 1650 м +14.0 0.0 38 +13 +14 989.0
СЗ 7
{12}
16 км 8/8 1650 м +13.0 0.0 41 +11 +11 989.0
З 10
{17}
16 км 5/5 1650 м +13.0 0.0 41 +10 +10 989.4
З 7
{11}
16 км 5/5 1650 м +12.0 0.0 44 +9 +10 989.7
СЗ 6
{10}
16 км 2/2 1650 м +12.0 0.0 44 +10 +10 990.0
Местоположение метеостанции Perkasie Pennridge Airport: широта 40.3864 долгота -75.2952 высота над уровнем моря 160 м.
В архиве по умолчанию представлена погода в Перкаси за последние 1-2 суток. Обновление информации о фактической погоде в базе происходит ежечасно! Архивные данные за месяц целиком и за предыдущие месяцы Вы можете получить, выбрав интересующий диапазон дат из раскрывающегося списка и нажав кнопку "Ввод!".
Внимание! Архив погоды МЕТАР в базе сайта по станциям, не включенным в климатический монитор, хранится не более 60 дней. Нет смысла пытаться выбрать более раннюю дату.
*Определитесь, кто Вы:
Внимание! Время в таблицах - местное (без учета летнего времени). Для получения всемирного времени необходимо вычесть поправку, которая равна -5 ч.
Смотрите также архив погоды в соседних городах и на ближайших метеорологических станциях:
Партнеры нашего сайта:      
Пояснения к столбцам:
  • Ветер - указаны скорость ветра в м/с - средняя за 10 мин, порывы в срок и между сроками (в фигурных скобках) и направление, откуда дует ветер: С - северный,
  • СВ - северо-восточный, В - восточный, ЮВ - юго-восточный, Ю - южный, ЮЗ - юго-западный, З - западный, СЗ - северо-западный.
  • Видимость - горизонтальная дальность видимости в метрах или километрах. При видимости от 1 до 10 км при отсутствии осадков обычно наблюдается дымка, при ухудшении видимости до 1 км и менее - туман. В сухую погоду видимость может ухудшаться дымом, пылью или мглою.
  • Явления - указаны атмосферные явления, наблюдавшиеся в срок или в последний час перед сроком; фигурными скобками обозначены явления, наблюдавшиеся между сроками (за 1-3 часа до срока); квадратными скобками обозначены град или гололедные отложения с указанием их диаметра в мм.
  • Облачность - указаны через наклонную черту общая и нижняя облачность в баллах и высота нижней границы облаков в метрах; квадратными скобками обозначены формы облаков: Ci - перистые, Cs - перисто-слоистые, Cc - перисто-кучевые, Ac - высококучевые, As - высокослоистые, Sc - слоисто-кучевые, Ns - слоисто-дождевые, Cu - кучевые, Cb - кучево-дождевые. Подробнее классификацию облаков см. в Атласе облаков (PDF).
  • T - Температура воздуха - температура, измеренная на высоте 2 м над землей.
  • Td - Температура точки росы - температура, при понижении до которой содержащийся в воздухе водяной пар достигнет насыщения.
  • f - Относительная влажность воздуха - влажноcть воздуха, измеренная на высоте 2 м над землей.
  • Te - Эффективная температура - температура, которую ощущает одетый по сезону человек в тени. Характеристика душности погоды. При расчете учитывается влияние влажности воздуха и скорости ветра на теплоощущения человека.
  • Tes - Эффективная температура на солнце - температура, которую ощущает человек, с поправкой на солнечный нагрев. Характеристика знойности погоды. Зависит от высоты солнца над горизонтом, облачности и скорости ветра. Ночью, в пасмурную погоду, а также при ветре 12 м/с и более поправка равна нулю.
  • P - Атмосферное давление - приведенное к уровню моря атмосферное давление.
  • Po - Атмосферное давление - измеренное на уровне метеостанции атмосферное давление.
  • Tmin - Минимальная температура - минимум температуры воздуха на высоте 2 м над землей.
  • Tmax - Максимальная температура - максимум температуры воздуха на высоте 2 м над землей.
  • R - Количество осадков - Количество выпавших осадков за период времени, мм. При наведении курсора мыши на число - период времени, за который выпало указанное количество осадков.
  • R24 - Количество осадков - Количество выпавших осадков за 24 часа, мм.
  • S - Снежный покров - Высота снежного покрова, см. При наведении курсора мыши на число - состояние снежного покрова и степень покрытия местности в баллах.